Keene, NH

12:14 PM EDT on July 27, 2017 (GMT -0400)
Dillant-Hopkins

Weather History for KEEN - August, 2012

Change the Weather History Date:

Saturday, August 11, 2012

  Actual Average Record
Temperature  
Mean Temperature 71 °F -  
Max Temperature 78 °F 80 °F 96 °F (1944)
Min Temperature 64 °F 58 °F 40 °F (1972)
Cooling Degree Days 6    
Growing Degree Days 21 (Base 50)    
Moisture  
Dew Point 65 °F    
Average Humidity 91    
Maximum Humidity 100    
Minimum Humidity 73    
Precipitation  
Precipitation 0.69 in - - ()
Sea Level Pressure  
Sea Level Pressure 29.88 in    
Wind  
Wind Speed 1 mph (SSW)    
Max Wind Speed 10 mph    
Max Gust Speed 20 mph    
Visibility 6 miles    
Events Thunderstorm    
Averages and records for this station are not official NWS values.
T = Trace of Precipitation, MM = Missing Value Source: NWS Daily Summary

Daily Weather History Graph

Daily Weather History Graph

Search for Another Location

Airport or City:

Trip Planner

Search our weather history database for the weather conditions in past years. The results will help you decide how hot, cold, wet, or windy it might be!

Date:

Astronomy

Aug. 11, 2012 Rise Set
Actual Time 5:51 AM EDT 7:56 PM EDT
Civil Twilight 5:20 AM EDT 8:27 PM EDT
Nautical Twilight 4:42 AM EDT 9:05 PM EDT
Astronomical Twilight 4:00 AM EDT 9:46 PM EDT
Moon 12:15 AM EDT (8/11) 3:31 PM EDT (8/11)
Length of Visible Light 15h 06m
Length of Day
14h 04m
Waning Crescent, 33% of the Moon is Illuminated
Aug 11
Waning Crescent
Aug 17
New
Aug 24
First Quarter
Aug 31
Full
Sep 8
Last Quarter

Hourly Weather History & Observations

Time (EDT) Temp. Dew Point Humidity Pressure Visibility Wind Dir Wind Speed Gust Speed Precip Events Conditions
12:15 AM 66.2 °F 64.4 °F 94% 29.83 in 9.0 mi Calm Calm - N/A   Overcast
12:35 AM 66.2 °F 64.4 °F 94% 29.83 in 9.0 mi Calm Calm - N/A   Mostly Cloudy
12:56 AM 66.2 °F 64.4 °F 94% 29.84 in 5.0 mi Calm Calm - N/A   Mostly Cloudy
1:15 AM 66.2 °F 64.4 °F 94% 29.83 in 9.0 mi Calm Calm - N/A   Overcast
1:35 AM 66.2 °F 64.4 °F 94% 29.84 in 9.0 mi Calm Calm - N/A   Overcast
1:55 AM 66.2 °F 64.4 °F 94% 29.84 in 8.0 mi Calm Calm - N/A   Mostly Cloudy
2:15 AM 66.2 °F 64.4 °F 94% 29.84 in 5.0 mi Calm Calm - N/A   Mostly Cloudy
2:35 AM 64.4 °F 64.4 °F 100% 29.84 in 3.0 mi Calm Calm - N/A   Overcast
2:55 AM 64.4 °F 64.4 °F 100% 29.85 in 0.5 mi Calm Calm - N/A   Overcast
3:15 AM 64.4 °F 64.4 °F 100% 29.85 in 0.2 mi Calm Calm - N/A   Overcast
3:35 AM 64.4 °F 64.4 °F 100% 29.85 in 0.5 mi Calm Calm - N/A   Overcast
3:55 AM 64.4 °F 64.4 °F 100% 29.85 in 0.2 mi Calm Calm - N/A   Overcast
4:15 AM 64.4 °F 62.6 °F 94% 29.85 in 0.2 mi Calm Calm - N/A   Overcast
4:35 AM 64.4 °F 62.6 °F 94% 29.86 in 0.5 mi Calm Calm - N/A   Overcast
4:55 AM 64.4 °F 62.6 °F 94% 29.85 in 0.5 mi Calm Calm - N/A   Overcast
5:15 AM 64.4 °F 64.4 °F 100% 29.85 in 0.2 mi Calm Calm - N/A   Overcast
5:35 AM 64.4 °F 64.4 °F 100% 29.86 in 0.2 mi South 3.5 mph - N/A   Overcast
5:55 AM 64.4 °F 62.6 °F 94% 29.87 in 0.2 mi Calm Calm - N/A   Overcast
6:15 AM 64.4 °F 64.4 °F 100% 29.88 in 0.2 mi Calm Calm - N/A   Overcast
6:35 AM 64.4 °F 64.4 °F 100% 29.88 in 0.2 mi Calm Calm - N/A   Overcast
6:55 AM 64.4 °F 64.4 °F 100% 29.88 in 0.2 mi Calm Calm - N/A   Overcast
7:15 AM 64.4 °F 64.4 °F 100% 29.89 in 0.5 mi Calm Calm - N/A   Overcast
7:35 AM 66.2 °F 64.4 °F 94% 29.90 in 0.5 mi Calm Calm - N/A   Overcast
7:55 AM 64.4 °F 64.4 °F 100% 29.90 in 0.5 mi Calm Calm - N/A   Overcast
8:15 AM 66.2 °F 64.4 °F 94% 29.90 in 0.8 mi Calm Calm - N/A   Overcast
8:35 AM 66.2 °F 64.4 °F 94% 29.90 in 9.0 mi South 3.5 mph - N/A   Overcast
8:55 AM 66.2 °F 64.4 °F 94% 29.90 in 10.0 mi Calm Calm - N/A   Overcast
9:15 AM 66.2 °F 64.4 °F 94% 29.90 in 10.0 mi Calm Calm - N/A   Overcast
9:35 AM 68.0 °F 66.2 °F 94% 29.91 in 10.0 mi WSW 3.5 mph - N/A   Overcast
9:55 AM 69.8 °F 66.2 °F 88% 29.90 in 10.0 mi SSE 5.8 mph - N/A   Overcast
10:15 AM 73.4 °F 68.0 °F 83% 29.91 in 10.0 mi South 3.5 mph - N/A   Overcast
10:35 AM 73.4 °F 68.0 °F 83% 29.91 in 10.0 mi SSW 4.6 mph - N/A   Overcast
10:55 AM 75.2 °F 68.0 °F 78% 29.91 in 10.0 mi South 3.5 mph - N/A   Overcast
11:15 AM 75.2 °F 66.2 °F 73% 29.91 in 10.0 mi SSW 6.9 mph - N/A   Overcast
11:55 AM 75.2 °F 68.0 °F 78% 29.90 in 10.0 mi SW 6.9 mph - N/A   Overcast
12:15 PM 75.2 °F 68.0 °F 78% 29.89 in 10.0 mi SW 5.8 mph - N/A   Overcast
12:35 PM 77.0 °F 68.0 °F 74% 29.89 in 10.0 mi South 4.6 mph - N/A   Overcast
12:55 PM 77.0 °F 69.8 °F 78% 29.89 in 10.0 mi Calm Calm - N/A   Overcast
1:15 PM 78.8 °F 69.8 °F 74% 29.88 in 10.0 mi SW 6.9 mph - N/A   Mostly Cloudy
3:15 PM 73.4 °F 68.0 °F 83% 29.89 in 8.0 mi WSW 9.2 mph 19.6 mph N/A Thunderstorm Thunderstorm
8:35 PM 69.8 °F 66.2 °F 88% 29.89 in 10.0 mi NNW 3.5 mph - N/A   Mostly Cloudy
8:55 PM 69.8 °F 66.2 °F 88% 29.90 in 10.0 mi Calm Calm - N/A Thunderstorm Mostly Cloudy
9:15 PM 69.8 °F 68.0 °F 94% 29.91 in 3.0 mi North 10.4 mph 17.3 mph N/A Thunderstorm Thunderstorm
9:35 PM 69.8 °F 66.2 °F 88% 29.90 in 10.0 mi ENE 6.9 mph - N/A Thunderstorm Scattered Clouds
9:55 PM 69.8 °F 66.2 °F 88% 29.91 in 10.0 mi WNW 4.6 mph - 0.27 in   Scattered Clouds
10:15 PM 69.8 °F 66.2 °F 88% 29.91 in 6.0 mi Calm Calm - 0.07 in   Mostly Cloudy
10:35 PM 69.8 °F 66.2 °F 88% 29.92 in 9.0 mi West 5.8 mph - 0.14 in   Overcast
10:55 PM 69.8 °F 66.2 °F 88% 29.93 in 6.0 mi East 3.5 mph - 0.22 in   Mostly Cloudy
11:15 PM 69.8 °F 66.2 °F 88% 29.93 in 8.0 mi South 5.8 mph - 0.06 in   Overcast
11:35 PM 69.8 °F 66.2 °F 88% 29.93 in 9.0 mi South 5.8 mph - 0.12 in Thunderstorm Mostly Cloudy
11:55 PM 69.8 °F 66.2 °F 88% 29.91 in 6.0 mi SSE 3.5 mph - 0.20 in   Mostly Cloudy